Location: Rayville (historical)
(39.9992°N, 99.6815°W)
Time: 15:22:27
(UTC+00:00)

STARLINK-56 - Pass Details

Date: 18 February 2020
Orbit: 529 x 531 km, 53.0° (Epoch: 08 April)

Event Time Altitude Azimuth Distance (km) Brightness Sun altitude
Rises 02:02:38 0° 237° (WSW) 2,661 8.0 -20.9°
Reaches altitude 10° 02:04:51 10° 241° (WSW) 1,775 7.0 -21.4°
Maximum altitude 02:08:51 63° 323° (NW) 596 3.8 -22.1°
Enters shadow 02:09:29 54° 9° (N) 652 3.8 -22.2°
